Location: New Mesquite
(33.1168°N, 96.4336°W)
Time: 18:17:48
(UTC+00:00)

CZ-2C R/B - Pass Details

Date: 02 July 2022
Orbit: 784 x 871 km, 98.2° (Epoch: 09 August)

Event Time Altitude Azimuth Distance (km) Brightness Sun altitude
Rises 10:19:15 0° 146° (SE) 3,391 5.8 -11.7°
Reaches altitude 10° 10:21:43 10° 139° (SE) 2,471 5.2 -11.3°
Maximum altitude 10:26:48 39° 71° (ENE) 1,260 4.3 -10.4°
Drops below altitude 10° 10:31:58 10° 4° (N) 2,517 5.8 -9.5°
Sets 10:34:29 0° 357° (N) 3,462 6.4 -9.1°
